Regional Weather Roundup
Issued by NWS

Home | Current Version | Previous Version | Text Only | Print | Product List | Glossary Off
Versions: 1 2 3 4 5 6 7 8 9 10 11 12 13 14 15 16 17 18 19 20 21 22 23 24 25 26 27 28 29 30 31 32 33 34 35 36 37 38 39 40 41 42 43 44 45 46 47 48 49 50

943
ASUS43 KOAX 250710
RWRNE

WEATHER ROUNDUP FOR NEBRASKA
NATIONAL WEATHER SERVICE OMAHA NE
200 AM CDT THU AUG 25 2016

NOTES: SATELLITE DATA IS BEING USED TO AUGMENT CLOUD COVER ABOVE
       12000 FEET.
       "FAIR" INDICATES FEW OR NO CLOUDS BELOW 12,000 FEET WITH NO
       SIGNIFICANT WEATHER AND/OR OBSTRUCTIONS TO VISIBILITY.

  * THESE STATIONS DO NOT REPORT WEATHER SUCH AS RAIN...SNOW OR FOG.

NEZ001>004-019>022-054>056-250800-
NEBRASKA PANHANDLE

CITY           SKY/WX    TMP DP  RH WIND       PRES   REMARKS
SCOTTSBLUFF    CLEAR     54  47  77 SE6       30.22S
ALLIANCE       CLEAR     52  48  86 CALM      30.21S
CHADRON        CLOUDY    58  54  86 CALM      30.22R
SIDNEY         CLEAR     50  41  71 SW8       30.23S
$$

NEZ057>060-069>072-079>082-250800-
SOUTHWEST NEBRASKA

CITY           SKY/WX    TMP DP  RH WIND       PRES   REMARKS
NORTH PLATTE   PTCLDY    56  51  84 CALM      30.18S
IMPERIAL       CLOUDY    56  50  80 N3        30.19F
LEXINGTON      MOCLDY    57  54  87 W3        30.16S
MCCOOK         MOCLDY    59  51  75 N9        30.16S
OGALLALA       PTCLDY    50  42  74 CALM      30.19S
$$

NEZ005>010-023>029-035>040-094-250800-
NORTH CENTRAL NEBRASKA

CITY           SKY/WX    TMP DP  RH WIND       PRES   REMARKS
VALENTINE      CLOUDY    56  49  77 W7        30.17R
AINSWORTH      CLOUDY    59  55  87 SW3       30.17R
BROKEN BOW     CLOUDY    53  52  96 N5        30.16S
O`NEILL        MOCLDY    60  53  76 W7        30.14S
ORD            CLOUDY    60  54  80 CALM      30.13S
THEDFORD       CLOUDY    57  52  82 CALM      30.19F
$$

NEZ041-046>049-061>064-073>077-083>087-250800-
SOUTH CENTRAL NEBRASKA

CITY           SKY/WX    TMP DP  RH WIND       PRES   REMARKS
GRAND ISLAND   PTCLDY    61  54  77 N7        30.13R
AURORA         PTCLDY    60  58  92 N5        30.12R
HASTINGS       CLOUDY    61  56  83 N5        30.13S
HEBRON         CLOUDY    60  59  97 CALM      30.10S
HOLDREGE       CLOUDY    59  55  87 N8        30.13F
KEARNEY *      MOCLDY    63  54  72 N7        30.12F
YORK           CLOUDY    59  57  94 N6        30.12S
$$

NEZ011>018-030>034-042>045-250800-
NORTHEAST NEBRASKA

CITY           SKY/WX    TMP DP  RH WIND       PRES   REMARKS
NORFOLK        PTCLDY    58  56  93 W5        30.11R
ALBION         PTCLDY    57  54  90 CALM      30.13S
BLAIR          CLEAR     62  57  85 N8        30.08S
FREMONT        CLEAR     56  56  97 CALM      30.09F
TEKAMAH        CLEAR     54  52  93 CALM      30.08R
WAYNE          CLOUDY    58  55  91 CALM      30.11S
$$

NEZ050>053-065>068-078-088>093-250800-
SOUTHEAST NEBRASKA

CITY           SKY/WX    TMP DP  RH WIND       PRES   REMARKS
LINCOLN        CLEAR     59  57  93 N3        30.10R
OMAHA EPPLEY   MOCLDY    63  59  87 N7        30.07R
BEATRICE       PTCLDY    58  57  99 CALM      30.09R
FALLS CITY     CLOUDY    67  65  93 N6        30.04S
NEBRASKA CITY  PTCLDY    64  64 100 N7        30.07S
PLATTSMOUTH    CLOUDY    63  62  96 NW3       30.08R
$$

NEZ044-045-051>053-067-250800-
OMAHA AREA

CITY           SKY/WX    TMP DP  RH WIND       PRES   REMARKS
OMAHA EPPLEY   MOCLDY    63  59  87 N7        30.07R
BLAIR          CLEAR     62  57  85 N8        30.08S
FREMONT        CLEAR     56  56  97 CALM      30.09F
MILLARD        CLOUDY    64  59  86 NW3       30.07S
OFFUTT AFB     CLOUDY    62  61  96 NW3       30.06S
PLATTSMOUTH    CLOUDY    63  62  96 NW3       30.08R
WAHOO          FAIR      58  56  92 NW5       30.09S
$$




USA.gov is the U.S. government's official web portal to all federal, state and local government web resources and services.